Вернуться в каталог

STARLINK-3286

АктивенСвязьVLEO
NORAD 50171·PAYLOAD·🇺🇸 United States

Запущен Dec 18, 2021 с Vandenberg Space Force Base

Loading…

Ближайшие Пролёты (ближайшие 24 часа)

TLE

СвежийSource: CelesTrak SupGP

Эпоха: Sep 15, 2026, 01:07 UTC

1 50171C 21125R   26258.04701389  .00043233  00000+0  13903-2 0  2580
2 50171  53.1572 104.2702 0001334  83.0222  77.4723 15.31679511    13

Отслеживайте STARLINK-3286 в реальном времени с AllMySat

Download on the App Store